EN

Hourly Weather Bolshoe Kasimovo

Today, 30 October, Friday

Time Temperature Precipitation Wind Pressure Humidity
00:00 +5°C° 0 mm 2 mps 749 mmHg 72%
01:00 +5°C° 0 mm 2 mps 749 mmHg 73%
02:00 +6°C° 0 mm 1 mps 749 mmHg 72%
03:00 +5°C° 0 mm 2 mps 748 mmHg 73%
04:00 +5°C° 0 mm 2 mps 748 mmHg 73%
05:00 +5°C° 0 mm 2 mps 747 mmHg 74%
06:00 +6°C° 0 mm 2 mps 747 mmHg 75%
07:00 +6°C° 0 mm 2 mps 747 mmHg 75%
08:00 +6°C° 0 mm 2 mps 748 mmHg 76%
09:00 +7°C° 0 mm 2 mps 747 mmHg 73%
10:00 +8°C° 0 mm 2 mps 747 mmHg 70%
11:00 +8°C° 0 mm 2 mps 747 mmHg 68%
12:00 +9°C° 0 mm 2 mps 747 mmHg 67%
13:00 +10°C° 0 mm 1 mps 747 mmHg 67%
14:00 +11°C° 0 mm 1 mps 747 mmHg 67%
15:00 +10°C° 0 mm 1 mps 747 mmHg 71%
16:00 +9°C° 0 mm 1 mps 747 mmHg 75%
17:00 +8°C° 0 mm 1 mps 747 mmHg 78%
18:00 +7°C° 0 mm 0 mps 747 mmHg 79%
19:00 +7°C° 0 mm 0 mps 747 mmHg 81%
20:00 +7°C° 0 mm 0 mps 747 mmHg 82%
21:00 +7°C° 0 mm 0 mps 747 mmHg 82%
22:00 +7°C° 0 mm 0 mps 747 mmHg 83%
23:00 +7°C° 0 mm 0 mps 747 mmHg 83%

Tomorrow, 31 October, Saturday

Time Temperature Precipitation Wind Pressure Humidity
00:00 +8°C° 0 mm 1 mps 747 mmHg 83%
01:00 +8°C° 0 mm 1 mps 747 mmHg 83%
02:00 +8°C° 0 mm 1 mps 747 mmHg 83%
03:00 +7°C° 0 mm 1 mps 747 mmHg 85%
04:00 +7°C° 0 mm 1 mps 747 mmHg 86%
05:00 +7°C° 0 mm 1 mps 747 mmHg 88%
06:00 +7°C° 0 mm 1 mps 747 mmHg 86%
07:00 +6°C° 0 mm 2 mps 747 mmHg 85%
08:00 +7°C° 0 mm 2 mps 748 mmHg 84%
09:00 +7°C° 0 mm 2 mps 748 mmHg 81%
10:00 +8°C° 0 mm 3 mps 748 mmHg 78%
11:00 +8°C° 0 mm 3 mps 748 mmHg 75%
12:00 +9°C° 0 mm 3 mps 748 mmHg 75%
13:00 +8°C° 0 mm 4 mps 749 mmHg 74%
14:00 +8°C° 0 mm 4 mps 749 mmHg 74%
15:00 +7°C° 0 mm 4 mps 749 mmHg 77%
16:00 +7°C° 0 mm 4 mps 749 mmHg 81%
17:00 +6°C° 0 mm 4 mps 749 mmHg 84%
18:00 +5°C° 0 mm 4 mps 750 mmHg 85%
19:00 +5°C° 0 mm 4 mps 750 mmHg 86%
20:00 +5°C° 0 mm 4 mps 750 mmHg 87%
21:00 +5°C° 0 mm 4 mps 750 mmHg 88%
22:00 +5°C° 0 mm 4 mps 750 mmHg 88%
23:00 +3°C° 0 mm 5 mps 750 mmHg 88%

Day after tomorrow, 1 November, Sunday

Time Temperature Precipitation Wind Pressure Humidity
00:00 +3°C° 0 mm 5 mps 751 mmHg 88%
01:00 +3°C° 0 mm 5 mps 751 mmHg 87%
02:00 +3°C° 0 mm 6 mps 751 mmHg 86%
03:00 +3°C° 0 mm 6 mps 751 mmHg 87%
04:00 +3°C° 0 mm 6 mps 751 mmHg 87%
05:00 +3°C° 0 mm 6 mps 751 mmHg 87%
06:00 +3°C° 0.1 mm 7 mps 751 mmHg 88%
07:00 +3°C° 0.1 mm 7 mps 751 mmHg 90%
08:00 +2°C° 0.1 mm 7 mps 751 mmHg 91%
09:00 +3°C° 0.2 mm 7 mps 750 mmHg 90%
10:00 +3°C° 0.2 mm 7 mps 750 mmHg 89%
11:00 +4°C° 0.2 mm 7 mps 750 mmHg 88%
12:00 +4°C° 0.2 mm 7 mps 750 mmHg 88%
13:00 +4°C° 0.2 mm 7 mps 750 mmHg 88%
14:00 +4°C° 0.2 mm 7 mps 749 mmHg 89%
15:00 +4°C° 0.7 mm 7 mps 749 mmHg 90%
16:00 +4°C° 0.7 mm 6 mps 749 mmHg 91%
17:00 +4°C° 0.7 mm 6 mps 749 mmHg 92%
18:00 +5°C° 0.5 mm 6 mps 749 mmHg 92%
19:00 +6°C° 0.5 mm 5 mps 749 mmHg 92%
20:00 +6°C° 0.5 mm 5 mps 749 mmHg 92%
21:00 +6°C° 0.1 mm 5 mps 749 mmHg 93%
22:00 +6°C° 0.1 mm 5 mps 749 mmHg 93%
23:00 +7°C° 0.1 mm 5 mps 749 mmHg 94%

2 November, Monday

Time Temperature Precipitation Wind Pressure Humidity
00:00 +7°C° 0.1 mm 4 mps 749 mmHg 94%
01:00 +7°C° 0.1 mm 4 mps 749 mmHg 94%
02:00 +7°C° 0.1 mm 4 mps 749 mmHg 95%
03:00 +7°C° 0 mm 4 mps 749 mmHg 94%
04:00 +7°C° 0 mm 4 mps 749 mmHg 94%
05:00 +8°C° 0 mm 3 mps 749 mmHg 93%
06:00 +7°C° 0 mm 4 mps 749 mmHg 92%
07:00 +7°C° 0 mm 4 mps 749 mmHg 91%
08:00 +7°C° 0 mm 4 mps 750 mmHg 90%
09:00 +7°C° 0 mm 4 mps 750 mmHg 87%
10:00 +8°C° 0 mm 5 mps 750 mmHg 83%
11:00 +8°C° 0 mm 5 mps 750 mmHg 79%
12:00 +9°C° 0 mm 5 mps 750 mmHg 78%
13:00 +10°C° 0 mm 4 mps 750 mmHg 77%
14:00 +10°C° 0 mm 4 mps 750 mmHg 76%
15:00 +8°C° 0 mm 4 mps 750 mmHg 79%
16:00 +8°C° 0 mm 4 mps 750 mmHg 83%
17:00 +8°C° 0 mm 3 mps 750 mmHg 87%
18:00 +8°C° 0 mm 3 mps 751 mmHg 88%
19:00 +7°C° 0 mm 4 mps 751 mmHg 89%
20:00 +7°C° 0 mm 4 mps 751 mmHg 91%
21:00 +8°C° 0 mm 3 mps 751 mmHg 91%
22:00 +8°C° 0 mm 3 mps 751 mmHg 91%
23:00 +7°C° 0 mm 3 mps 751 mmHg 91%

3 November, Tuesday

Time Temperature Precipitation Wind Pressure Humidity
00:00 +7°C° 0 mm 3 mps 751 mmHg 91%
01:00 +7°C° 0 mm 3 mps 751 mmHg 91%
02:00 +6°C° 0 mm 4 mps 751 mmHg 92%
03:00 +6°C° 0 mm 4 mps 752 mmHg 92%
04:00 +6°C° 0 mm 4 mps 752 mmHg 92%
05:00 +6°C° 0 mm 4 mps 752 mmHg 92%
06:00 +6°C° 0 mm 4 mps 752 mmHg 92%
07:00 +7°C° 0 mm 3 mps 752 mmHg 92%
08:00 +8°C° 0 mm 3 mps 753 mmHg 92%
09:00 +7°C° 0 mm 4 mps 753 mmHg 90%
10:00 +8°C° 0 mm 4 mps 753 mmHg 88%
11:00 +8°C° 0 mm 4 mps 753 mmHg 87%
12:00 +8°C° 0 mm 4 mps 753 mmHg 85%
13:00 +9°C° 0 mm 5 mps 754 mmHg 83%
14:00 +9°C° 0 mm 5 mps 754 mmHg 81%
15:00 +10°C° 0 mm 4 mps 754 mmHg 82%
16:00 +9°C° 0 mm 3 mps 754 mmHg 83%
17:00 +9°C° 0 mm 3 mps 754 mmHg 83%
18:00 +9°C° 0 mm 2 mps 754 mmHg 84%
19:00 +9°C° 0 mm 2 mps 755 mmHg 85%
20:00 +10°C° 0 mm 1 mps 755 mmHg 86%
21:00 +8°C° 0 mm 2 mps 755 mmHg 88%
22:00 +8°C° 0 mm 2 mps 755 mmHg 90%
23:00 +7°C° 0 mm 2 mps 755 mmHg 92%

4 November, Wednesday

Time Temperature Precipitation Wind Pressure Humidity
00:00 +7°C° 0 mm 2 mps 755 mmHg 93%
01:00 +7°C° 0 mm 2 mps 755 mmHg 94%
02:00 +7°C° 0 mm 1 mps 755 mmHg 94%
03:00 +7°C° 0 mm 1 mps 755 mmHg 94%
04:00 +7°C° 0 mm 1 mps 756 mmHg 95%
05:00 +7°C° 0 mm 1 mps 756 mmHg 95%
06:00 +7°C° 0 mm 1 mps 756 mmHg 95%
07:00 +7°C° 0 mm 1 mps 756 mmHg 94%
08:00 +7°C° 0 mm 1 mps 756 mmHg 94%
09:00 +9°C° 0 mm 1 mps 756 mmHg 89%
10:00 +10°C° 0 mm 1 mps 757 mmHg 84%
11:00 +11°C° 0 mm 1 mps 757 mmHg 79%
12:00 +11°C° 0 mm 1 mps 757 mmHg 78%
13:00 +12°C° 0 mm 2 mps 757 mmHg 77%
14:00 +12°C° 0 mm 2 mps 756 mmHg 76%
15:00 +11°C° 0 mm 1 mps 757 mmHg 81%
16:00 +10°C° 0 mm 1 mps 757 mmHg 85%
17:00 +9°C° 0 mm 1 mps 757 mmHg 89%
18:00 +8°C° 0 mm 1 mps 757 mmHg 90%
19:00 +8°C° 0 mm 1 mps 757 mmHg 91%
20:00 +8°C° 0 mm 1 mps 757 mmHg 92%
21:00 +7°C° 0 mm 1 mps 757 mmHg 93%
22:00 +7°C° 0 mm 1 mps 757 mmHg 94%
23:00 +7°C° 0 mm 1 mps 757 mmHg 95%
Show more